Aeroporto :
LOGIN :

Iscrizione | Disclaimer

   EN    FR    IT 

 










Sommario :    VFR   VFR Marginale   IFR   IFR Intensivo   IFR Molto Intensivo
Visibilità : 
Base nubi : 
>= 8 km
>= 3000ft
5 / 8 km
1000 / 3000 ft
1500m / 5 km
500 / 1000 ft
800 / 1500m
200 / 500 ft
< 800m
< 200 ft
Simboli :   Temporali  Nebbia  Neve Forte  Precipitazioni Forti  Vento > 20 kt
SIGMETs :   Varie  Temporali  Ghiacco  Turbolenza  Onda orograficha  Ceneri Vulcaniche







- Altitudine del aeroporto : 36 ft
- Codice IATA : LTQ
- Carte del aeroporto


LFAT - Le Touquet

ULTIMO METAR :
  • 220030Z AUTO 32003KT 6000 NSC 13/11 Q1012

METARs OBSOLETI :
  • 220000Z AUTO 35004KT CAVOK 13/10 Q1012
  • 212330Z AUTO 32004KT CAVOK 14/10 Q1012
  • 212300Z AUTO 33005KT CAVOK 14/10 Q1012
  • 212230Z AUTO 32006KT CAVOK 14/10 Q1013
  • 212200Z AUTO 31004KT CAVOK 15/10 Q1012

Previsioni scadute.
ATIS : +33 3 21 06 62 84
Nessun NOTAM noto per questo aeroporto.



MetMap, La meteo Aeronautica in un colpo d'occhio ! - Copyright ORBIFLY Dicembre 2007 - Disclaimer

ORBIFLY MET'MAP TEAM :

Programmazione e sviluppo : Alexandra Zaïnal
Concezione e sviluppo : Baudouin d'Aumeries
Co-Programmazione e sviluppo : Marc-Olivier Méhu
Supporto tecnico e logistico : Manuel Goepfert
Aiuto per la traduzione : Arnaldo La Scala

Contatto : metmap@orbifly.com




FONTI E CREDITI :

   NOAA